Weather History for Crestview, FL

Change the Weather History Date:

Tuesday, December 11, 2012

  Actual Average Record
Temperature  
Mean Temperature 48 °F -  
Max Temperature 55 °F - - ()
Min Temperature 42 °F - - ()
Degree Days  
Heating Degree Days 16    
Moisture  
Dew Point 44 °F    
Average Humidity 83    
Maximum Humidity 94    
Minimum Humidity 70    
Precipitation  
Precipitation 0.12 in - - ()
Sea Level Pressure  
Sea Level Pressure 30.00 in    
Wind  
Wind Speed 10 mph (North)    
Max Wind Speed 15 mph    
Max Gust Speed -    
Visibility 10 miles    
Events Rain    
T = Trace of Precipitation, MM = Missing Value Source: NWS Daily Summary

Daily Weather History Graph

Daily Weather History Graph

Search for Another Location

Airport:

Trip Planner

Search our weather history database for the weather conditions in past years. The results will help you decide how hot, cold, wet, or windy it might be!

Date:

Astronomy

Dec. 11, 2012 Rise Set
Actual Time 6:33 AM CST 4:45 PM CST
Civil Twilight 6:07 AM CST 5:12 PM CST
Nautical Twilight 5:37 AM CST 5:42 PM CST
Astronomical Twilight 5:07 AM CST 6:11 PM CST
Moon 4:31 AM CST (12/11) 3:21 PM CST (12/11)
Length of Visible Light 11h 04m
Length of Day
10h 11m
Waning Crescent, 4% of the Moon is Illuminated
Dec 11
Waning Crescent
Dec 13
New
Dec 19
First Quarter
Dec 28
Full
Jan 4
Last Quarter

Hourly Weather History & Observations

Time (CST) Temp. Windchill Dew Point Humidity Pressure Visibility Wind Dir Wind Speed Gust Speed Precip Events Conditions
12:13 AM 55.4 °F - 51.8 °F 88% 29.91 in 10.0 mi NNW 10.4 mph - N/A   Overcast
12:22 AM 55.4 °F - 51.8 °F 88% 29.91 in 10.0 mi NNW 10.4 mph - N/A   Overcast
12:41 AM 55.4 °F - 51.8 °F 88% 29.91 in 10.0 mi North 9.2 mph - N/A   Overcast
12:47 AM 53.6 °F - 51.8 °F 94% 29.91 in 10.0 mi North 11.5 mph - N/A   Overcast
12:55 AM 53.6 °F - 51.3 °F 92% 29.91 in 10.0 mi North 11.5 mph - N/A   Overcast
1:07 AM 53.6 °F - 50.0 °F 88% 29.92 in 10.0 mi North 8.1 mph - N/A   Overcast
1:36 AM 51.8 °F - 50.0 °F 94% 29.91 in 10.0 mi North 8.1 mph - N/A   Overcast
1:55 AM 52.2 °F - 48.4 °F 87% 29.91 in 10.0 mi NNW 15.0 mph - N/A   Overcast
2:01 AM 51.8 °F - 48.2 °F 88% 29.91 in 10.0 mi NNW 13.8 mph - N/A   Overcast
2:55 AM 50.9 °F - 47.7 °F 89% 29.91 in 10.0 mi NNW 12.7 mph - N/A   Overcast
2:58 AM 50.0 °F - 48.2 °F 94% 29.91 in 10.0 mi North 10.4 mph - N/A   Overcast
3:12 AM 50.0 °F - 46.4 °F 87% 29.92 in 10.0 mi North 10.4 mph - N/A   Overcast
3:36 AM 50.0 °F - 46.4 °F 87% 29.92 in 10.0 mi NNW 10.4 mph - N/A   Overcast
3:51 AM 50.0 °F - 46.4 °F 87% 29.92 in 10.0 mi North 12.7 mph - N/A   Overcast
3:55 AM 49.3 °F - 46.6 °F 90% 29.92 in 10.0 mi North 12.7 mph - N/A   Overcast
4:22 AM 48.2 °F - 44.6 °F 87% 29.93 in 10.0 mi North 12.7 mph - N/A   Overcast
4:23 AM 48.2 °F - 44.6 °F 87% 29.93 in 10.0 mi North 11.5 mph - N/A   Overcast
4:24 AM 48.2 °F - 44.6 °F 87% 29.94 in 10.0 mi NNW 11.5 mph - N/A   Overcast
4:27 AM 48.2 °F - 44.6 °F 87% 29.94 in 10.0 mi North 9.2 mph - N/A   Overcast
4:29 AM 48.2 °F - 44.6 °F 87% 29.94 in 10.0 mi North 9.2 mph - N/A   Overcast
4:55 AM 48.4 °F - 43.2 °F 82% 29.94 in 10.0 mi NNW 12.7 mph - N/A   Overcast
5:55 AM 47.8 °F - 42.3 °F 81% 29.98 in 10.0 mi North 10.4 mph - N/A   Overcast
6:28 AM 48.2 °F - 42.8 °F 82% 29.99 in 10.0 mi North 11.5 mph - N/A   Light Drizzle
6:42 AM 46.4 °F 41.9 °F 42.8 °F 87% 30.01 in 10.0 mi North 9.2 mph - N/A   Overcast
6:55 AM 46.8 °F - 42.8 °F 86% 30.01 in 10.0 mi North 9.2 mph - 0.00 in   Overcast
7:55 AM 47.3 °F - 42.8 °F 84% 30.03 in 10.0 mi North 10.4 mph - N/A   Overcast
8:32 AM 48.2 °F - 42.8 °F 82% 30.04 in 10.0 mi North 10.4 mph - N/A   Mostly Cloudy
8:55 AM 48.2 °F - 42.8 °F 82% 30.06 in 10.0 mi North 10.4 mph - N/A   Overcast
9:55 AM 48.6 °F - 41.5 °F 77% 30.07 in 10.0 mi North 11.5 mph - N/A   Overcast
10:26 AM 48.2 °F - 41.0 °F 76% 30.05 in 10.0 mi North 9.2 mph - N/A   Overcast
10:55 AM 49.6 °F - 41.4 °F 73% 30.07 in 10.0 mi North 9.2 mph - N/A   Overcast
11:55 AM 50.0 °F - 41.0 °F 71% 30.06 in 10.0 mi North 9.2 mph - N/A   Overcast
12:55 PM 49.6 °F - 40.8 °F 72% 30.04 in 10.0 mi North 9.2 mph - N/A   Overcast
1:55 PM 49.1 °F - 40.6 °F 73% 30.04 in 10.0 mi North 9.2 mph - N/A   Overcast
2:55 PM 48.7 °F - 39.7 °F 71% 30.06 in 10.0 mi North 10.4 mph - N/A   Overcast
3:55 PM 47.8 °F - 39.0 °F 71% 30.08 in 10.0 mi North 9.2 mph - N/A   Overcast
4:55 PM 47.3 °F - 38.7 °F 72% 30.06 in 10.0 mi North 6.9 mph - N/A   Overcast
5:55 PM 46.8 °F - 37.6 °F 70% 30.07 in 10.0 mi North 13.8 mph - N/A   Overcast
6:55 PM 46.0 °F 41.0 °F 37.0 °F 71% 30.10 in 10.0 mi North 10.4 mph - N/A   Overcast
7:55 PM 45.5 °F 41.8 °F 37.2 °F 73% 30.14 in 10.0 mi North 6.9 mph - N/A   Overcast
8:04 PM 46.4 °F 42.4 °F 37.4 °F 71% 30.13 in 10.0 mi North 8.1 mph - N/A Rain Light Rain
8:55 PM 44.2 °F 39.2 °F 38.7 °F 81% 30.14 in 10.0 mi North 9.2 mph - 0.00 in Rain Light Rain
9:55 PM 43.3 °F 39.2 °F 40.5 °F 90% 30.15 in 9.0 mi NNE 6.9 mph - 0.04 in Rain Light Rain
10:55 PM 42.8 °F 39.3 °F 40.6 °F 92% 30.14 in 6.0 mi NNE 5.8 mph - 0.04 in Rain Light Rain
11:55 PM 42.6 °F 38.4 °F 40.8 °F 93% 30.13 in 4.0 mi North 6.9 mph - 0.04 in Rain Light Rain